Location: Chassagnes
(44.4047°N, 4.1657°E)
Time: 11:36:30
(UTC+00:00)

NOSS 3-4 (C) - Pass Details

Date: 27 October 2020
Orbit: 886 x 1326 km, 63.4° (Epoch: 06 November)

Event Time Altitude Azimuth Distance (km) Brightness Sun altitude
Rises 19:22:39 0° 323° (NW) 3,811 7.3 -29.7°
Reaches altitude 10° 19:25:12 10° 326° (NW) 2,915 6.5 -30.1°
Enters shadow 19:31:43 67° 26° (NNE) 1,246 3.8 -31.3°
